Home > Weather > Durham > Past weeks

Flag for United Kingdom Past Weather in Durham, England, United Kingdom — Yesterday and Last 2 Weeks

Now
63 °F

Scattered clouds.


Feels Like: 63 °F
Forecast: 50 / 61 °F
Wind: 7 mph from Northwest

Location: Newcastle

Current Time: Jun 26, 2016 at 11:16:55 AM

Latest Report: Jun 26, 2016 at 10:50 AM


Visibility: N/A

Pressure: 29.95 "Hg

Humidity: 73%

Dew Point: 54 °F

Location of DurhamLocation

Past Weather in Durham — Graph

°F

Durham Temperature Yesterday

Maximum temperature yesterday: 63 °F (at 9:50 AM)
Minimum temperature yesterday: 46 °F (at 2:20 AM)
Average temperature yesterday: 55 °F

High & Low Weather Summary for the Past Weeks

 TemperatureHumidityPressure
High72 °F (Jun 22, 3:20 PM)100% (Jun 11, 10:20 AM)30.18 "Hg (Jun 11, 10:20 AM)
Low45 °F (Jun 19, 1:20 AM)49% (Jun 21, 2:20 PM)29.36 "Hg (Jun 14, 2:50 PM)
Average56 °F83%29.81 "Hg
* Reported Jun 11 10:20 AM — Jun 26 10:20 AM, Durham, Weather by CustomWeather, © 2016

Note: Actual official high and low records may vary slightly from our data, if they occured in-between our weather recording intervals... More about our weather records

Advertising

Durham Weather History for the Previous 24 Hours

Scroll right to see more
 ConditionsComfort  
Time TempWeatherWind HumidityBarometerVisibility
10:20 AM
Sun, Jun 26
61 °FScattered clouds.8 mph77%29.95 "HgN/A
9:50 AM59 °FPartly sunny.8 mph82%29.98 "HgN/A
8:50 AM57 °FPartly sunny.10 mph82%29.98 "HgN/A
7:50 AM59 °FPassing clouds.8 mph88%29.98 "HgN/A
7:20 AM57 °FPassing clouds.6 mph88%29.98 "HgN/A
6:50 AM54 °FPassing clouds.9 mph94%29.98 "HgN/A
6:20 AM55 °FPassing clouds.10 mph88%29.98 "HgN/A
5:50 AM54 °FPassing clouds.7 mph94%29.98 "HgN/A
5:20 AM54 °FPassing clouds.6 mph88%29.98 "HgN/A
4:50 AM54 °FPassing clouds.5 mph88%29.98 "HgN/A
4:20 AM54 °FPassing clouds.3 mph94%30.01 "HgN/A
3:50 AM54 °FPassing clouds.5 mph94%30.01 "HgN/A
3:20 AM54 °FPassing clouds.5 mph94%30.01 "HgN/A
2:50 AM54 °FPassing clouds.6 mph94%30.01 "HgN/A
2:20 AM54 °FPassing clouds.3 mph94%30.01 "HgN/A
1:50 AM54 °FPassing clouds.5 mph94%30.01 "HgN/A
1:20 AM54 °FPartly cloudy.6 mph94%30.01 "HgN/A
12:20 AM54 °FPassing clouds.5 mph94%30.01 "HgN/A
11:50 PM
Sat, Jun 25
54 °FPassing clouds.6 mph94%30.01 "HgN/A
11:20 PM54 °FScattered showers. Passing clouds.6 mph94%30.04 "Hg5 mi
10:50 PM54 °FScattered showers. Passing clouds.6 mph94%30.04 "Hg5 mi
10:20 PM54 °FScattered showers. Partly sunny.7 mph94%30.04 "Hg5 mi
9:50 PM54 °FScattered showers. Partly sunny.5 mph94%30.04 "Hg5 mi
8:50 PM54 °FScattered showers. Partly sunny.5 mph94%30.01 "Hg4 mi
8:20 PM54 °FSprinkles. Partly sunny.6 mph94%30.01 "Hg4 mi
7:50 PM55 °FSprinkles. Partly sunny.8 mph88%30.01 "Hg4 mi
7:20 PM55 °FSprinkles. Partly sunny.9 mph88%30.01 "Hg5 mi
6:50 PM59 °FScattered showers. Scattered clouds.9 mph77%30.01 "HgN/A
6:20 PM61 °FScattered clouds.3 mph77%30.01 "HgN/A
5:50 PM61 °FScattered clouds.2 mph77%30.01 "HgN/A
5:20 PM61 °FScattered clouds.6 mph77%30.01 "HgN/A
4:50 PM61 °FScattered clouds.5 mph77%30.01 "HgN/A
4:20 PM61 °FScattered clouds.3 mph77%30.01 "HgN/A
3:50 PM61 °FScattered showers. Scattered clouds.6 mph83%30.01 "HgN/A
3:20 PM59 °FScattered showers. Scattered clouds.9 mph82%30.01 "HgN/A
2:50 PM61 °FScattered showers. Partly sunny.8 mph83%30.01 "HgN/A
2:20 PM59 °FScattered showers. Scattered clouds.8 mph82%30.01 "HgN/A
1:50 PM55 °FScattered showers. Scattered clouds.6 mph88%30.01 "HgN/A
1:20 PM55 °FPartly sunny.5 mph88%30.01 "HgN/A
12:50 PM55 °FSprinkles. Partly sunny.6 mph82%30.01 "Hg4 mi
12:20 PM57 °FRain showers. Partly sunny.17 mph72%30.01 "Hg4 mi
11:50 AM63 °FScattered showers. Scattered clouds.2 mph68%29.98 "HgN/A
11:20 AM63 °FScattered clouds.2 mph77%29.98 "HgN/A
Weather by CustomWeather, © 2016

See weather overviewHow to use our weather pages